User: anonymous   Login
Location: Unspecified
(0.0000°N, 0.0000°E)
Time: 17:02:48
(UTC+01:00)
Language:

CZ-4 R/B - Orbit

View from above orbital plane
View from above orbital plane
View from above satellite
View from above satellite

Ground track
Ground track

The orbit data is extracted from the following two-line orbital elements,

1 28059U 03049C   15064.62446826  .00000269  00000-0  77613-4 0  9999
2 28059 098.6746 277.2740 0049197 268.5891 127.2238 14.52296454602537
Epoch (UTC): 05 March 2015 14:59:14
Eccentricity: 0.0049197
inclination: 98.6746°
perigee height: 683 km
apogee height: 753 km
right ascension of ascending node: 277.2740°
argument of perigee: 268.5891°
revolutions per day: 14.52296454
mean anomaly at epoch: 127.2238°
orbit number at epoch: 60253

The dashed part of the orbit path shows where the satellite is in the earth's shadow,  

DLR